Nanoose Bay, British Columbia

6:25 PM PDT on July 25, 2017 (GMT -0700)
Nanoose Bay

Weather History for 71769 - July, 2013

Change the Weather History Date:

Saturday, July 20, 2013

  Actual Average Record
Temperature  
Mean Temperature 66 °F -  
Max Temperature 70 °F - - ()
Min Temperature 61 °F - - ()
Growing Degree Days 16 (Base 50)    
Moisture  
Dew Point 59 °F    
Average Humidity 76    
Maximum Humidity 82    
Minimum Humidity 67    
Precipitation  
Precipitation 0.00 in - - ()
Sea Level Pressure  
Sea Level Pressure 29.99 in    
Wind  
Wind Speed 10 mph ()    
Max Wind Speed 21 mph    
Max Gust Speed -    
T = Trace of Precipitation, MM = Missing Value Source: Averaged Metar Reports

Daily Weather History Graph

Daily Weather History Graph

Search for Another Location

Airport or City:

Trip Planner

Search our weather history database for the weather conditions in past years. The results will help you decide how hot, cold, wet, or windy it might be!

Date:

Astronomy

Jul. 20, 2013 Rise Set
Actual Time 5:33 AM PDT 9:12 PM PDT
Civil Twilight 4:53 AM PDT 9:52 PM PDT
Nautical Twilight 3:58 AM PDT 10:46 PM PDT
Astronomical Twilight 2:39 AM PDT 12:03 AM PDT
Moon 7:19 PM PDT (7/20) 3:19 AM PDT (7/20)
Length of Visible Light 16h 58m
Length of Day
15h 38m
Waxing Gibbous, 94% of the Moon is Illuminated
Jul 20
Waxing Gibbous
Jul 22
Full
Jul 29
Last Quarter
Aug 6
New
Aug 14
First Quarter

Hourly Weather History & Observations

Time (PDT) Temp. Dew Point Humidity Pressure Visibility Wind Dir Wind Speed Gust Speed Precip Events Conditions
12:00 AM 68.5 °F 62.6 °F 81% 30.00 in - West 11.5 mph - N/A   Unknown
1:00 AM 68.2 °F 61.0 °F 78% 30.01 in - West 12.7 mph - N/A   Unknown
2:00 AM 67.5 °F 58.8 °F 74% 30.01 in - WNW 16.1 mph - N/A   Unknown
3:00 AM 66.4 °F 57.9 °F 74% 30.01 in - WNW 18.4 mph - N/A   Unknown
4:00 AM 64.8 °F 57.9 °F 78% 30.01 in - WNW 18.4 mph - N/A   Unknown
5:00 AM 64 °F 57 °F 70% 30.01 in - WNW 18.4 mph - -  
5:00 AM 63.7 °F 56.7 °F 78% 30.01 in - WNW 18.4 mph - N/A   Unknown
6:00 AM 63.0 °F 56.5 °F 79% 30.01 in - WNW 20.7 mph - N/A   Unknown
7:00 AM 62.4 °F 55.8 °F 79% 30.02 in - WNW 19.6 mph - N/A   Unknown
8:00 AM 62.1 °F 55.4 °F 79% 30.02 in - WNW 17.3 mph - N/A   Unknown
9:00 AM 62.2 °F 55.9 °F 80% 30.03 in - WNW 16.1 mph - N/A   Unknown
10:00 AM 63.0 °F 56.1 °F 78% 30.03 in - WNW 12.7 mph - N/A   Unknown
11:00 AM 64 °F 57 °F 71% 30.02 in - WNW 9.2 mph - -  
11:00 AM 64.0 °F 57.0 °F 78% 30.02 in - WNW 9.2 mph - N/A   Unknown
12:00 PM 65.8 °F 57.9 °F 76% 30.02 in - West 5.8 mph - N/A   Unknown
1:00 PM 67.6 °F 59.4 °F 75% 30.01 in - WNW 3.5 mph - N/A   Unknown
2:00 PM 67.8 °F 57.4 °F 69% 30.01 in - NE 1.2 mph - N/A   Unknown
3:00 PM 68.7 °F 58.8 °F 71% 30.00 in - East 3.5 mph - N/A   Unknown
4:00 PM 67.5 °F 58.6 °F 73% 29.98 in - East 4.6 mph - N/A   Unknown
5:00 PM 68 °F 60 °F 67% 29.96 in - East 4.6 mph - -  
5:00 PM 68.2 °F 59.5 °F 74% 29.96 in - East 4.6 mph - N/A   Unknown
6:00 PM 68.2 °F 60.3 °F 76% 29.94 in - East 3.5 mph - N/A   Unknown
7:00 PM 68.4 °F 60.3 °F 75% 29.94 in - ESE 3.5 mph - N/A   Unknown
8:00 PM 68.2 °F 60.6 °F 77% 29.93 in - ESE 3.5 mph - N/A   Unknown
9:00 PM 67.1 °F 61.2 °F 81% 29.92 in - ESE 4.6 mph - N/A   Unknown
10:00 PM 66.6 °F 60.6 °F 81% 29.93 in - SE 3.5 mph - N/A   Unknown
11:00 PM 66 °F 60 °F 76% 29.93 in - West 1.2 mph - -  
11:00 PM 65.7 °F 60.1 °F 82% 29.93 in - West 1.2 mph - N/A   Unknown